Regional Weather Roundup
Issued by NWS Raleigh/Durham, NC

Home | Current Version | Previous Version | Text Only | Print | Product List | Glossary On
Versions: 1 2 3 4 5 6 7 8 9 10 11 12 13 14 15 16 17 18 19 20 21 22 23 24 25 26 27 28 29 30 31 32 33 34 35 36 37 38 39 40 41 42 43 44 45 46 47 48 49 50
000
ASUS42 KRAH 240510
RWRRAH
NORTH CAROLINA WEATHER ROUNDUP
NATIONAL WEATHER SERVICE RALEIGH NC
100 AM EDT SUN MAY 24 2015

NOTE: "FAIR" INDICATES FEW OR NO CLOUDS BELOW 12,000 FEET WITH NO
SIGNIFICANT WEATHER AND/OR OBSTRUCTIONS TO VISIBILITY.

NCZ001-053-055-056-065-067-240600-
WESTERN NORTH CAROLINA

CITY           SKY/WX    TMP DP  RH WIND       PRES   REMARKS
ASHEVILLE      CLEAR     55  47  74 CALM      30.41S
JEFFERSON      MOCLDY    55  38  54 CALM      30.43S
MORGANTON      CLEAR     53  48  83 CALM      30.43R
HICKORY        CLEAR     61  44  53 CALM      30.37S
RUTHERFORDTON  CLEAR     56  49  80 CALM      30.38S
MOUNT AIRY     CLEAR     59  51  73 CALM      30.41R
BOONE          CLEAR     49  42  78 CALM      30.44F
$$

NCZ021-022-025-041-071-084-088-240600-
CENTRAL NORTH CAROLINA

CITY           SKY/WX    TMP DP  RH WIND       PRES   REMARKS
CHARLOTTE      FAIR      64  44  48 S6        30.38R
GREENSBORO     PTCLDY    63  47  55 S3        30.37S
WINSTON-SALEM  CLEAR     61  49  64 CALM      30.38F
RALEIGH-DURHAM PTCLDY    63  51  65 SE6       30.38F
FORT BRAGG     NOT AVBL
FAYETTEVILLE   CLEAR     59  50  72 E5        30.38S
BURLINGTON     CLEAR     58  51  78 CALM      30.37S
LAURINBURG     CLEAR     58  53  84 CALM      30.39R
$$

NCZ011-015-027-028-043-044-047-080-103-240600-
NORTHEASTERN NORTH CAROLINA

CITY           SKY/WX    TMP DP  RH WIND       PRES   REMARKS
ROCKY MT-WILSO CLEAR     62  53  72 SE3       30.40R
GREENVILLE     CLEAR     63  52  67 S3        30.40S
WASHINGTON     CLEAR     59  51  73 CALM      30.40F
ELIZABETH CITY CLEAR     59  54  83 SE5       30.41F
MANTEO         CLEAR     61  55  83 E8        30.42F
CAPE HATTERAS  CLEAR     61  55  81 NE7       30.40F
$$

NCZ078-087-090-091-093-098-101-240600-
SOUTHEASTERN NORTH CAROLINA

CITY           SKY/WX    TMP DP  RH WIND       PRES   REMARKS
LUMBERTON      CLEAR     56  53  90 CALM      30.38R
GOLDSBORO      NOT AVBL
KINSTON        CLEAR     60  54  79 CALM      30.40F
KENANSVILLE    CLEAR     56  54  92 CALM      30.40F
NEW BERN       CLEAR     63  54  72 CALM      30.40F
CHERRY POINT   CLEAR     61  52  72 SE3       30.40F
BEAUFORT       CLEAR     63  58  83 NE3       30.39F
JACKSONVILLE   CLEAR     64  55  72 E7        30.38F
WILMINGTON     CLEAR     62  59  90 NE5       30.37F
$$



USA.gov is the U.S. government's official web portal to all federal, state and local government web resources and services.